User: anonymous   Login
Location: Hurecourt
(47.9030°N, 6.0653°E)
Time: 19:36:34
(UTC+00:00)
Language:

COSMOS 2406 - Orbit

View from above orbital plane
View from above orbital plane
View from above satellite
View from above satellite

Ground track
Ground track

The orbit data is extracted from the following two-line orbital elements,

1 28352U 04021A   20269.93216758 -.00000188 +00000-0 -77446-4 0  9998
2 28352 071.0054 145.7316 0011509 097.6512 262.5917 14.11695034839693
Epoch (UTC): 25 September 2020 22:22:19
Eccentricity: 0.0011509
inclination: 71.0054°
perigee height: 845 km
apogee height: 862 km
right ascension of ascending node: 145.7316°
argument of perigee: 97.6512°
revolutions per day: 14.11695034
mean anomaly at epoch: 262.5917°
orbit number at epoch: 83969

The dashed part of the orbit path shows where the satellite is in the earth's shadow,  

DLR